岩本彗星

C/2013 E2 ( Iwamoto )

English version
Home page
Updated on May 7, 2015

---------------------------------------------------------------------

・ プロフィール

発見日 2013年3月10日
発見光度 14等
発見者 岩本雅之(徳島県阿波市)

・ 写真集

・ 軌道要素

Epoch 2013 Mar. 9.0 TT = JDT 2456360.5
T 2013 Mar.  9.03708 TT                                 MPC
q   1.4133424            (2000.0)            P               Q
z  +0.0042321      Peri.   95.82566     +0.14122660     +0.98984709
 +/-0.0000007      Node   182.47171     -0.98965179     +0.14074574
e   0.9940186      Incl.   21.85715     -0.02538457     +0.01983359
From 1099 observations 2012 Mar. 15-2014 Feb. 2, mean residual 0".5.

・ 星図

・ 光度変化

        m1 =  9.0 + 5 logΔ + 14.0 log r  [ ,0]  (              〜2013年 3月 9日)
        m1 = 10.0 + 5 logΔ +  8.0 log r  [0, ]  (2013年 3月 9日〜              )

---------------------------------------------------------------------

軌道要素はM.P.E.C. 2014-J58に掲載されたものです。
星図はステラナビゲータ Ver.8 (アストロアーツ) で作成したものです。
光度グラフはComet for Windowsで作成したものです。

---------------------------------------------------------------------

Copyright(C) Seiichi Yoshida (comet@aerith.net). All rights reserved.